Regional Weather Roundup
Issued by NWS

Home | Current Version | Previous Version | Text Only | Print | Product List | Glossary On
Versions: 1 2 3 4 5 6 7 8 9 10 11 12 13 14 15 16 17 18 19 20 21 22 23 24 25 26 27 28 29 30 31 32 33 34 35 36 37 38 39 40 41 42 43 44 45 46 47 48 49 50
000
ASUS44 KOUN 241200
RWROK

WEATHER ROUNDUP FOR OKLAHOMA
NATIONAL WEATHER SERVICE NORMAN OK
700 AM CDT SUN MAY 24 2015

NOTE: "FAIR" INDICATES FEW OR NO CLOUDS BELOW 12,000 FEET WITH NO
      SIGNIFICANT WEATHER AND/OR OBSTRUCTIONS TO VISIBILITY.

OKZ001>007-009>012-014-015-017-241300-
NORTHWEST OKLAHOMA AND THE PANHANDLE

CITY           SKY/WX    TMP DP  RH WIND       PRES   REMARKS
GAGE           CLOUDY    59  56  89 S15       29.84S
6HR MIN TEMP:  58; 6HR MAX TEMP:  61;

GUYMON         CLOUDY    58  56  93 S7        29.85F
ENID/WOODRING  CLOUDY    61  61 100 CALM      29.87S
$$

OKZ016-021>023-033>039-044-045-241300-
SOUTHWEST OKLAHOMA

CITY           SKY/WX    TMP DP  RH WIND       PRES   REMARKS
LAWTON/REGL    MOCLDY    62  59  90 E6        29.86R
6HR MIN TEMP:  61; 6HR MAX TEMP:  63; 6HR PCP: TRACE;

FREDERICK      CLOUDY    62  61  96 E6        29.83R
CLINTON        CLOUDY    60  58  92 S6        29.88S
HOBART         CLOUDY    60  58  92 SE6       29.88R
$$

OKZ018>020-024>031-241300-
CENTRAL OKLAHOMA

CITY           SKY/WX    TMP DP  RH WIND       PRES   REMARKS
OKLAHOMA CITY  CLOUDY    59  58  96 S6        29.84F
6HR MIN TEMP:  59; 6HR MAX TEMP:  61; 6HR PCP:  0.05;

OKC/WILEY POST CLOUDY    61  59  93 S3        29.85F
STILLWATER     LGT RAIN  61  59  93 SW6       29.86F
GUTHRIE        CLOUDY    61  59  93 N8        29.87R
$$

OKZ008-013-054>072-241300-
NORTHEAST OKLAHOMA

CITY           SKY/WX    TMP DP  RH WIND       PRES   REMARKS
TULSA          LGT RAIN  62  61  96 SE9       29.88S
6HR MIN TEMP:  62; 6HR MAX TEMP:  65; 6HR PCP:  0.29;

TULSA/JONES    LGT RAIN  62  61  96 SE6       29.87F
PONCA CITY     CLOUDY    62  61  96 CALM      29.90S
BARTLESVILLE   LGT RAIN  62  62 100 SE7       29.90F
MUSKOGEE       RAIN      63  62  97 SE6       29.90F
$$

OKZ032-040>043-046>053-073>077-241300-
SOUTH CENTRAL/SOUTHEAST OKLAHOMA

CITY           SKY/WX    TMP DP  RH WIND       PRES   REMARKS
MCALESTER      HVY RAIN  63  61  93 W8G17     29.91R FOG
$$



USA.gov is the U.S. government's official web portal to all federal, state and local government web resources and services.